Regional Weather Roundup
Issued by NWS Lake Charles, LA

Home | Current Version | Previous Version | Text Only | Print | Product List | Glossary On
Versions: 1 2 3 4 5 6 7 8 9 10 11 12 13 14 15 16 17 18 19 20 21 22 23 24 25 26 27 28 29 30 31 32 33 34 35 36 37 38 39 40 41 42 43 44 45 46 47 48 49 50
000
ASUS44 KLCH 271210
RWRLCH
RWRLCH
REGIONAL WEATHER ROUNDUP
NATIONAL WEATHER SERVICE LAKE CHARLES LA
700 AM CDT WED AUG 27 2014

Note: "fair" indicates few or no clouds below 12,000 feet with no
significant weather and/or obstructions to visibility.


ACROSS SOUTHEAST TEXAS

CITY           SKY/WX    TMP DP  RH WIND       PRES   REMARKS
BEAUMONT       PTCLDY    77  73  87 NE8       29.98R
BEAUMONT CITY    N/A     75  73  91 NE5       29.99R
ORANGE         MOSUNNY   74  74 100 N3        30.00R
JASPER         PTCLDY    72  66  83 NE3       30.03R
$$

ACROSS CENTRAL LOUISIANA

CITY           SKY/WX    TMP DP  RH WIND       PRES   REMARKS
LEESVILLE      CLOUDY    73  66  78 NE5       30.01R
FULLERTON      CLOUDY    74  66  76 VRB3      29.99R
ALEXANDRIA INT CLEAR     69  67  93 CALM      30.00R
ESLER FIELD    CLEAR     69  66  90 CALM      30.02R
DERIDDER       CLOUDY    73  67  81 CALM      30.02R HAZE
OAKDALE        MOSUNNY   70  68  95 CALM      30.00R
OPELOUSAS        N/A    N/A N/A N/A NE3       30.00R
$$

ACROSS SOUTHWEST AND SOUTH CENTRAL LOUISIANA

CITY           SKY/WX    TMP DP  RH WIND       PRES   REMARKS
SULPHUR        MOSUNNY   75  74  95 CALM      30.00R
LAKE CHARLES   PTCLDY    75  72  90 NE5       29.99R
CHENNAULT INT  MOCLDY    75  72  88 N5        29.99R
CAMERON PHI    PTSUNNY   77  73  88 NE7       29.98R
DEQUINCY       CLOUDY    73  70  89 CALM      29.99R
JENNINGS       FOG       73  72  97 CALM      29.99R VSB 1
LAFAYETTE      CLEAR     75  73  93 NE5       29.99R
NEW IBERIA     PTCLDY    77  74  90 NE9       29.99R
ABBEVILLE        N/A     74  73  96 CALM      29.99R
PATTERSON        N/A     75  73  94 NE7       30.01R
SALT POINT       N/A     79  76  90 CALM      29.97R
$$

SELECTED SITES ACROSS THE REGION

CITY           SKY/WX    TMP DP  RH WIND       PRES   REMARKS
HOUSTON BUSH   MOCLDY    75  72  88 N3        29.97R
HOUSTON HOBBY  PTCLDY    79  72  79 NE8       29.96R
GALVESTON      MOCLDY    81  74  79 NE16G23   29.96R
COLLEGE STAT   CLEAR     75  70  84 N3        30.00R
CONROE         CLEAR     71  69  93 NW3       30.00R
HUNTSVILLE     CLEAR     71  69  93 CALM      30.01R
LUFKIN         PTCLDY    74  69  85 NE3       30.01R
SHREVEPORT     PTCLDY    71  69  93 CALM      30.03R
MONROE         CLEAR     68  65  90 CALM      30.04S
NATCHEZ MS     PTCLDY    70  64  83 CALM      30.03S
BATON ROUGE    PTCLDY    72  69  90 NE5       30.00R
N.O. INTL ARPT PTCLDY    82  75  79 E8        29.98R
SLIDELL        CLEAR     74  71  91 N5        29.99R
$$

MARINE REPORTS

STATION/POSITION TIME  TEMP    WIND        PRES    VSBY  WAVE
                       AIR SEA DIR/SP/G                  HT/PER
                 (UTC) (F)     (DEG/KT/KT) (MB)    (MI)  (FT/S)
BUOY 30 S HIGH I 1200   83 87   50/ 19/ 23 1013.1R         4/ 6
SEA RIM ST PARK  1200   78      60/  8/  9 1015.6R
PORT ARTHUR      1200      87   40/  2/  5 1015.1S
SABINE PASS N    1200   77 87   40/  8/ 10 1015.1R
TEXAS POINT      1200   78 86   40/  9/ 10 1015.2R
CALCASIEU PASS   1200   78 85   60/  7/ 11 1016.1R
LK CHARLES BEACH 1200   76 88              1016.2R
MARSH ISLAND     NOT AVBL
FRESH WATER LOCK 1200   78 85   70/  5/  7 1014.9R
AMERADA PASS     1200   77 82   70/  4/  6 1014.9R
$$


USA.gov is the U.S. government's official web portal to all federal, state and local government web resources and services.